Location: Berbisdorf
(50.7638°N, 12.9442°E)
Time: 02:33:58
(UTC+00:00)

BREEZE-M DEB (TANK) - Pass Details

Date: 02 October 2020
Orbit: 333 x 12040 km, 49.7° (Epoch: 19 October)

Event Time Altitude Azimuth Distance (km) Brightness Sun altitude
Rises 02:30:55 0° 183° (S) 14,876 9.1 -25.3°
Reaches altitude 10° 02:45:00 10° 179° (S) 15,035 9.1 -23.3°
Maximum altitude 04:11:10 53° 125° (SE) 10,008 8.7 -10.2°
Drops below altitude 10° 04:45:26 10° 62° (ENE) 7,459 9.0 -4.8°
Sets 04:49:13 0° 58° (ENE) 7,647 9.0 -4.2°
